NG87HG KLUK-BGGH

Flight info

Callsign NG87HG
Flight time 4h 15m
Altitude 41000
Route XAVRR2 SLLAM DCT RIKLE DCT GADAV Q907 DERLO Q820 YVO J545 MT DCT 53N071W 56N068W DCT LOPVI/M071F410 DCT LIBOR DCT OLKUK
Aircraft HDJT/L-SABDGRWY/H

Departure

Time 2026-05-07 20:59
Airport Cincinnati Municipal Airport Lunken Field (KLUK)

Arrival

Time 2026-05-08 01:14
Airport Nuuk International Airport (BGGH)
Time Latitude Longitude Altitude Speed Heading
2026-05-07 20:36 39.09899 -84.42561 482 ft 0 kts 162°
2026-05-07 20:52 39.09909 -84.42565 480 ft 3 kts 162°
2026-05-07 20:52 39.09929 -84.42573 485 ft 3 kts 162°
2026-05-07 20:53 39.09948 -84.42581 483 ft 3 kts 162°
2026-05-07 20:53 39.09955 -84.42584 485 ft 0 kts 162°
2026-05-07 20:55 39.09955 -84.42583 485 ft 0 kts 155°
2026-05-07 20:56 39.09948 -84.42566 480 ft 4 kts 107°
2026-05-07 20:56 39.09969 -84.42531 482 ft 8 kts 50°
2026-05-07 20:56 39.09940 -84.42477 484 ft 10 kts 153°
2026-05-07 20:56 39.09878 -84.42438 481 ft 10 kts 154°
2026-05-07 20:57 39.09807 -84.42395 485 ft 12 kts 155°
2026-05-07 20:57 39.09720 -84.42342 490 ft 16 kts 155°
2026-05-07 20:57 39.09609 -84.42273 493 ft 20 kts 154°
2026-05-07 20:57 39.09478 -84.42184 486 ft 22 kts 152°
2026-05-07 20:58 39.09358 -84.42063 485 ft 22 kts 135°
2026-05-07 20:58 39.09315 -84.41940 479 ft 11 kts 60°
2026-05-07 20:58 39.09386 -84.41894 483 ft 13 kts 20°
2026-05-07 20:58 39.09710 -84.41737 480 ft 93 kts 20°
2026-05-07 20:59 39.10552 -84.41326 521 ft 159 kts 18°
2026-05-07 20:59 39.11627 -84.40818 1244 ft 165 kts 14°
2026-05-07 20:59 39.12673 -84.40334 2442 ft 160 kts 15°
2026-05-07 20:59 39.13755 -84.39789 3177 ft 179 kts 18°
2026-05-07 21:00 39.15015 -84.39118 3550 ft 212 kts 17°
2026-05-07 21:00 39.16472 -84.38383 3968 ft 234 kts 18°
2026-05-07 21:00 39.17982 -84.37605 4833 ft 235 kts 18°
2026-05-07 21:00 39.19517 -84.36811 5623 ft 239 kts 18°
2026-05-07 21:01 39.21135 -84.36048 6141 ft 257 kts 14°
2026-05-07 21:01 39.22889 -84.35367 6904 ft 268 kts 13°
2026-05-07 21:01 39.24677 -84.34698 8009 ft 269 kts 12°
2026-05-07 21:01 39.26489 -84.34021 8976 ft 274 kts 12°
2026-05-07 21:02 39.28342 -84.33326 9937 ft 280 kts 12°
2026-05-07 21:02 39.30247 -84.32608 10620 ft 295 kts 12°
2026-05-07 21:02 39.32315 -84.31831 10855 ft 324 kts 12°
2026-05-07 21:02 39.34526 -84.30998 11075 ft 351 kts 12°
2026-05-07 21:03 39.36954 -84.30076 11284 ft 376 kts 12°
2026-05-07 21:03 39.39521 -84.29092 11802 ft 390 kts 12°
2026-05-07 21:03 39.42145 -84.28079 12494 ft 399 kts 11°
2026-05-07 21:03 39.44826 -84.27042 13323 ft 401 kts 11°
2026-05-07 21:04 39.47484 -84.26009 14301 ft 401 kts 10°
2026-05-07 21:04 39.50193 -84.24962 14851 ft 411 kts 10°
2026-05-07 21:04 39.52962 -84.23897 15404 ft 419 kts
2026-05-07 21:04 39.55770 -84.22814 16024 ft 425 kts
2026-05-07 21:05 39.58630 -84.21710 16613 ft 432 kts
2026-05-07 21:05 39.61527 -84.20589 17210 ft 438 kts
2026-05-07 21:05 39.64463 -84.19452 17776 ft 444 kts
2026-05-07 21:05 39.67409 -84.18311 18340 ft 451 kts
2026-05-07 21:06 39.70438 -84.17135 18843 ft 456 kts
2026-05-07 21:06 39.73481 -84.15950 19422 ft 459 kts
2026-05-07 21:06 39.76551 -84.14753 19992 ft 462 kts
2026-05-07 21:06 39.79642 -84.13551 20516 ft 466 kts
2026-05-07 21:07 39.82761 -84.12335 21016 ft 470 kts
2026-05-07 21:07 39.85877 -84.10905 21499 ft 480 kts 12°
2026-05-07 21:07 39.88989 -84.09266 22025 ft 485 kts 13°
2026-05-07 21:07 39.92111 -84.07534 22478 ft 490 kts 13°
2026-05-07 21:08 39.95259 -84.05760 22883 ft 495 kts 13°
2026-05-07 21:08 39.98433 -84.03976 23322 ft 498 kts 13°
2026-05-07 21:08 40.01635 -84.02192 23712 ft 502 kts 13°
2026-05-07 21:08 40.04858 -84.00412 24058 ft 504 kts 13°
2026-05-07 21:09 40.08101 -83.98633 24404 ft 507 kts 12°
2026-05-07 21:09 40.11362 -83.96851 24784 ft 510 kts 12°
2026-05-07 21:09 40.14649 -83.95058 25063 ft 514 kts 12°
2026-05-07 21:09 40.17954 -83.93256 25382 ft 516 kts 12°
2026-05-07 21:10 40.21273 -83.91441 25719 ft 518 kts 12°
2026-05-07 21:10 40.24598 -83.89619 26121 ft 518 kts 12°
2026-05-07 21:10 40.27918 -83.87796 26551 ft 518 kts 12°
2026-05-07 21:10 40.31237 -83.85970 27024 ft 517 kts 12°
2026-05-07 21:11 40.34549 -83.84147 27562 ft 516 kts 12°
2026-05-07 21:11 40.37864 -83.82322 28003 ft 517 kts 11°
2026-05-07 21:11 40.44485 -83.78673 28977 ft 515 kts 11°
2026-05-07 21:12 40.47789 -83.76849 29478 ft 515 kts 11°
2026-05-07 21:12 40.51084 -83.75029 29948 ft 514 kts 11°
2026-05-07 21:12 40.54384 -83.73204 30353 ft 514 kts 11°
2026-05-07 21:12 40.57678 -83.71380 30740 ft 513 kts 11°
2026-05-07 21:13 40.60966 -83.69557 31132 ft 513 kts 11°
2026-05-07 21:13 40.64250 -83.67734 31511 ft 512 kts 11°
2026-05-07 21:13 40.67531 -83.65912 31874 ft 511 kts 11°
2026-05-07 21:13 40.70808 -83.64090 32225 ft 511 kts 11°
2026-05-07 21:14 40.74086 -83.62266 32631 ft 511 kts 11°
2026-05-07 21:14 40.77353 -83.60445 33000 ft 510 kts 10°
2026-05-07 21:14 40.80574 -83.58648 33353 ft 509 kts 10°
2026-05-07 21:14 40.83829 -83.56829 33708 ft 508 kts 10°
2026-05-07 21:15 40.87083 -83.55009 34046 ft 507 kts 10°
2026-05-07 21:15 40.90329 -83.53193 34312 ft 507 kts 10°
2026-05-07 21:15 40.93581 -83.51373 34544 ft 508 kts 10°
2026-05-07 21:15 40.96835 -83.49550 34835 ft 508 kts 10°
2026-05-07 21:16 41.00077 -83.47728 35166 ft 505 kts 11°
2026-05-07 21:16 41.03309 -83.45908 35452 ft 504 kts 11°
2026-05-07 21:16 41.06534 -83.44094 35667 ft 505 kts 11°
2026-05-07 21:16 41.09772 -83.42273 35877 ft 505 kts 11°
2026-05-07 21:17 41.13010 -83.40449 36107 ft 505 kts 11°
2026-05-07 21:17 41.16242 -83.38624 36401 ft 504 kts 11°
2026-05-07 21:17 41.19467 -83.36801 36661 ft 503 kts 11°
2026-05-07 21:17 41.22682 -83.34980 36924 ft 502 kts 11°
2026-05-07 21:18 41.25898 -83.33159 37132 ft 502 kts 11°
2026-05-07 21:18 41.29116 -83.31336 37314 ft 503 kts 12°
2026-05-07 21:18 41.32335 -83.29511 37529 ft 503 kts 12°
2026-05-07 21:18 41.35548 -83.27685 37750 ft 502 kts 12°
2026-05-07 21:19 41.38753 -83.25831 38003 ft 503 kts 14°
2026-05-07 21:19 41.41913 -83.23792 37920 ft 504 kts 14°
2026-05-07 21:19 41.45116 -83.22021 38135 ft 498 kts 13°
2026-05-07 21:19 41.48312 -83.20287 38313 ft 494 kts
2026-05-07 21:20 41.51530 -83.18682 38444 ft 495 kts 10°
2026-05-07 21:20 41.54740 -83.16960 38599 ft 499 kts 12°
2026-05-07 21:20 41.57930 -83.15122 38792 ft 499 kts 14°
2026-05-07 21:20 41.61104 -83.13241 38957 ft 499 kts 14°
2026-05-07 21:21 41.67460 -83.09480 38961 ft 498 kts 14°
2026-05-07 21:21 41.73773 -83.05802 38952 ft 492 kts 13°
2026-05-07 21:22 41.80033 -83.02191 38980 ft 488 kts 13°
2026-05-07 21:22 41.86258 -82.98604 38961 ft 486 kts 13°
2026-05-07 21:23 41.92471 -82.95015 38969 ft 489 kts 13°
2026-05-07 21:23 41.98769 -82.91373 38991 ft 496 kts 14°
2026-05-07 21:24 42.05130 -82.87675 38966 ft 499 kts 14°
2026-05-07 21:24 42.11500 -82.83957 38945 ft 500 kts 14°
2026-05-07 21:25 42.17835 -82.80253 38950 ft 499 kts 14°
2026-05-07 21:25 42.24258 -82.76492 38942 ft 498 kts 14°
2026-05-07 21:26 42.30601 -82.72770 38942 ft 496 kts 14°
2026-05-07 21:26 42.36913 -82.69060 38938 ft 494 kts 14°
2026-05-07 21:27 42.42139 -82.65983 38925 ft 492 kts 15°
2026-05-07 21:27 42.49418 -82.61686 38916 ft 490 kts 15°
2026-05-07 21:28 42.55654 -82.57996 38913 ft 488 kts 15°
2026-05-07 21:28 42.61870 -82.54311 38920 ft 487 kts 15°
2026-05-07 21:29 42.68001 -82.50317 38901 ft 500 kts 29°
2026-05-07 21:29 42.69822 -82.48254 38942 ft 509 kts 40°
2026-05-07 21:29 42.72028 -82.44425 38926 ft 522 kts 57°
2026-05-07 21:30 42.73484 -82.39870 38975 ft 527 kts 68°
2026-05-07 21:30 42.74667 -82.35217 38955 ft 530 kts 69°
2026-05-07 21:30 42.77019 -82.25617 38970 ft 533 kts 69°
2026-05-07 21:31 42.79418 -82.16118 38959 ft 535 kts 68°
2026-05-07 21:31 42.81904 -82.06538 38944 ft 537 kts 68°
2026-05-07 21:32 42.84402 -81.96940 38942 ft 538 kts 68°
2026-05-07 21:32 42.86887 -81.87331 38943 ft 537 kts 68°
2026-05-07 21:33 42.89358 -81.77718 38946 ft 537 kts 68°
2026-05-07 21:33 42.91810 -81.68132 38944 ft 535 kts 68°
2026-05-07 21:34 42.94255 -81.58541 38953 ft 534 kts 68°
2026-05-07 21:34 42.96685 -81.48968 38941 ft 533 kts 69°
2026-05-07 21:35 42.99101 -81.39414 38937 ft 531 kts 69°
2026-05-07 21:35 43.01501 -81.29884 38936 ft 530 kts 69°
2026-05-07 21:36 43.03890 -81.20361 38935 ft 529 kts 69°
2026-05-07 21:36 43.07091 -81.11477 38939 ft 515 kts 44°
2026-05-07 21:37 43.09584 -81.08032 38957 ft 505 kts 32°
2026-05-07 21:37 43.12476 -81.05427 38929 ft 491 kts 17°
2026-05-07 21:37 43.18676 -81.01572 38938 ft 490 kts 17°
2026-05-07 21:38 43.24890 -80.97673 38942 ft 492 kts 17°
2026-05-07 21:38 43.31108 -80.93679 38945 ft 495 kts 18°
2026-05-07 21:39 43.37338 -80.89631 38936 ft 495 kts 18°
2026-05-07 21:39 43.43570 -80.85568 38937 ft 495 kts 18°
2026-05-07 21:40 43.49798 -80.81502 38949 ft 495 kts 19°
2026-05-07 21:40 43.56021 -80.77433 38934 ft 495 kts 19°
2026-05-07 21:41 43.62233 -80.73363 38927 ft 494 kts 19°
2026-05-07 21:41 43.68430 -80.69293 38941 ft 493 kts 19°
2026-05-07 21:42 43.74612 -80.65224 38927 ft 492 kts 19°
2026-05-07 21:42 43.80781 -80.61154 38936 ft 491 kts 19°
2026-05-07 21:43 43.86899 -80.57109 38946 ft 491 kts 19°
2026-05-07 21:43 43.93053 -80.53031 38929 ft 490 kts 19°
2026-05-07 21:44 43.99208 -80.48942 38928 ft 490 kts 19°
2026-05-07 21:44 44.05355 -80.44850 38946 ft 490 kts 19°
2026-05-07 21:45 44.11512 -80.40741 38942 ft 491 kts 19°
2026-05-07 21:45 44.17670 -80.36622 38934 ft 491 kts 20°
2026-05-07 21:46 44.23837 -80.32487 38951 ft 492 kts 20°
2026-05-07 21:46 44.30011 -80.28337 38945 ft 493 kts 20°
2026-05-07 21:47 44.36186 -80.24176 38947 ft 493 kts 20°
2026-05-07 21:47 44.42365 -80.20003 38942 ft 493 kts 20°
2026-05-07 21:48 44.48537 -80.15825 38943 ft 493 kts 20°
2026-05-07 21:48 44.54708 -80.11639 38946 ft 493 kts 20°
2026-05-07 21:49 44.60872 -80.07442 38961 ft 493 kts 20°
2026-05-07 21:49 44.67036 -80.03232 38953 ft 493 kts 20°
2026-05-07 21:50 44.73198 -79.99014 38955 ft 493 kts 20°
2026-05-07 21:50 44.79358 -79.94788 38962 ft 493 kts 21°
2026-05-07 21:51 44.85475 -79.90581 38948 ft 492 kts 21°
2026-05-07 21:51 44.91624 -79.86342 38945 ft 492 kts 21°
2026-05-07 21:52 44.97768 -79.82096 38949 ft 492 kts 21°
2026-05-07 21:52 45.03912 -79.77840 38942 ft 491 kts 21°
2026-05-07 21:53 45.10066 -79.73664 38935 ft 489 kts 18°
2026-05-07 21:53 45.16324 -79.69950 38944 ft 487 kts 17°
2026-05-07 21:54 45.22612 -79.66355 38940 ft 487 kts 17°
2026-05-07 21:54 45.28882 -79.62717 38935 ft 487 kts 17°
2026-05-07 21:55 45.35139 -79.59031 38939 ft 487 kts 18°
2026-05-07 21:55 45.41388 -79.55324 38921 ft 486 kts 18°
2026-05-07 21:56 45.47633 -79.51610 38920 ft 486 kts 18°
2026-05-07 21:56 45.53870 -79.47894 38923 ft 486 kts 18°
2026-05-07 21:57 45.60111 -79.44168 38906 ft 486 kts 18°
2026-05-07 21:57 45.66344 -79.40438 38909 ft 486 kts 18°
2026-05-07 21:58 45.72579 -79.36698 38914 ft 486 kts 18°
2026-05-07 21:58 45.78809 -79.32952 38911 ft 486 kts 18°
2026-05-07 21:59 45.85041 -79.29195 38913 ft 486 kts 18°
2026-05-07 21:59 45.91268 -79.25432 38919 ft 486 kts 18°
2026-05-07 22:00 45.97498 -79.21658 38911 ft 486 kts 18°
2026-05-07 22:00 46.03685 -79.17901 38915 ft 486 kts 18°
2026-05-07 22:01 46.09920 -79.14106 38914 ft 487 kts 19°
2026-05-07 22:01 46.16156 -79.10301 38896 ft 487 kts 19°
2026-05-07 22:02 46.22392 -79.06485 38890 ft 487 kts 19°
2026-05-07 22:02 46.28623 -79.02664 38889 ft 486 kts 19°
2026-05-07 22:03 46.34851 -78.98835 38892 ft 486 kts 19°
2026-05-07 22:03 46.41073 -78.95000 38901 ft 486 kts 19°
2026-05-07 22:04 46.47289 -78.91160 38907 ft 486 kts 19°
2026-05-07 22:04 46.53502 -78.87312 38896 ft 485 kts 19°
2026-05-07 22:05 46.59714 -78.83454 38893 ft 485 kts 19°
2026-05-07 22:05 46.65920 -78.79592 38902 ft 485 kts 19°
2026-05-07 22:06 46.72125 -78.75719 38888 ft 485 kts 19°
2026-05-07 22:06 46.78331 -78.71836 38889 ft 485 kts 19°
2026-05-07 22:07 46.84530 -78.67948 38905 ft 485 kts 19°
2026-05-07 22:07 46.90729 -78.64051 38891 ft 485 kts 19°
2026-05-07 22:08 46.96931 -78.60141 38878 ft 485 kts 20°
2026-05-07 22:08 47.03127 -78.56226 38902 ft 485 kts 20°
2026-05-07 22:09 47.09324 -78.52299 38887 ft 485 kts 20°
2026-05-07 22:09 47.15479 -78.48389 38874 ft 485 kts 20°
2026-05-07 22:10 47.21678 -78.44442 38876 ft 485 kts 20°
2026-05-07 22:10 47.27872 -78.40487 38878 ft 485 kts 20°
2026-05-07 22:11 47.34061 -78.36526 38874 ft 485 kts 20°
2026-05-07 22:11 47.40247 -78.32556 38867 ft 485 kts 20°
2026-05-07 22:12 47.46431 -78.28578 38870 ft 485 kts 20°
2026-05-07 22:12 47.52612 -78.24591 38864 ft 485 kts 20°
2026-05-07 22:13 47.58785 -78.20599 38862 ft 484 kts 20°
2026-05-07 22:13 47.64961 -78.16595 38869 ft 484 kts 20°
2026-05-07 22:14 47.71138 -78.12579 38864 ft 485 kts 20°
2026-05-07 22:14 47.77317 -78.08552 38864 ft 485 kts 20°
2026-05-07 22:15 47.83500 -78.04512 38870 ft 485 kts 20°
2026-05-07 22:15 47.89682 -78.00461 38861 ft 486 kts 20°
2026-05-07 22:16 47.95867 -77.96398 38853 ft 486 kts 21°
2026-05-07 22:16 48.02050 -77.92325 38865 ft 486 kts 21°
2026-05-07 22:17 48.07191 -77.88931 38854 ft 486 kts 21°
2026-05-07 22:17 48.13374 -77.84816 38851 ft 487 kts 24°
2026-05-07 22:18 48.21262 -77.75231 38813 ft 493 kts 50°
2026-05-07 22:19 48.25446 -77.67065 38827 ft 494 kts 52°
2026-05-07 22:19 48.29575 -77.58832 38837 ft 494 kts 51°
2026-05-07 22:20 48.33737 -77.50633 38846 ft 493 kts 51°
2026-05-07 22:20 48.37923 -77.42449 38840 ft 494 kts 51°
2026-05-07 22:21 48.42111 -77.34260 38853 ft 494 kts 51°
2026-05-07 22:21 48.46294 -77.26054 38849 ft 494 kts 51°
2026-05-07 22:22 48.50475 -77.17821 38844 ft 495 kts 51°
2026-05-07 22:22 48.54653 -77.09565 38848 ft 495 kts 51°
2026-05-07 22:23 48.58827 -77.01292 38858 ft 495 kts 51°
2026-05-07 22:23 48.62994 -76.93008 38843 ft 496 kts 52°
2026-05-07 22:24 48.67130 -76.84759 38836 ft 495 kts 52°
2026-05-07 22:24 48.71286 -76.76447 38833 ft 495 kts 52°
2026-05-07 22:25 48.75434 -76.68125 38844 ft 495 kts 52°
2026-05-07 22:25 48.79572 -76.59797 38837 ft 494 kts 52°
2026-05-07 22:26 48.83702 -76.51459 38829 ft 494 kts 52°
2026-05-07 22:26 48.87825 -76.43109 38826 ft 494 kts 52°
2026-05-07 22:27 48.91934 -76.34761 38819 ft 493 kts 52°
2026-05-07 22:27 48.96034 -76.26406 38828 ft 493 kts 52°
2026-05-07 22:28 49.00126 -76.18042 38820 ft 492 kts 52°
2026-05-07 22:28 49.04206 -76.09675 38816 ft 492 kts 52°
2026-05-07 22:29 49.08280 -76.01295 38816 ft 491 kts 52°
2026-05-07 22:29 49.12313 -75.92973 38831 ft 491 kts 53°
2026-05-07 22:30 49.16369 -75.84579 38816 ft 491 kts 53°
2026-05-07 22:30 49.20413 -75.76182 38815 ft 490 kts 53°
2026-05-07 22:31 49.24449 -75.67774 38817 ft 490 kts 53°
2026-05-07 22:31 49.28480 -75.59352 38809 ft 490 kts 53°
2026-05-07 22:32 49.32499 -75.50927 38825 ft 490 kts 53°
2026-05-07 22:32 49.36516 -75.42482 38816 ft 490 kts 53°
2026-05-07 22:33 49.40528 -75.34019 38815 ft 490 kts 53°
2026-05-07 22:33 49.44537 -75.25536 38814 ft 491 kts 53°
2026-05-07 22:34 49.48540 -75.17037 38822 ft 491 kts 53°
2026-05-07 22:34 49.52514 -75.08574 38807 ft 491 kts 53°
2026-05-07 22:35 49.56531 -74.99990 38802 ft 491 kts 54°
2026-05-07 22:35 49.60489 -74.91508 38800 ft 490 kts 54°
2026-05-07 22:36 49.64465 -74.82958 38788 ft 491 kts 54°
2026-05-07 22:36 49.68434 -74.74395 38778 ft 491 kts 54°
2026-05-07 22:37 49.72398 -74.65816 38762 ft 491 kts 54°
2026-05-07 22:37 49.76359 -74.57217 38756 ft 491 kts 54°
2026-05-07 22:38 49.80681 -74.49097 38758 ft 489 kts 41°
2026-05-07 22:38 49.86150 -74.42928 38777 ft 486 kts 31°
2026-05-07 22:39 49.91866 -74.37317 38759 ft 486 kts 31°
2026-05-07 22:39 49.97571 -74.31676 38802 ft 486 kts 31°
2026-05-07 22:40 50.03250 -74.25961 38811 ft 486 kts 32°
2026-05-07 22:40 50.08918 -74.20204 38806 ft 487 kts 32°
2026-05-07 22:41 50.14587 -74.14422 38805 ft 487 kts 32°
2026-05-07 22:41 50.20256 -74.08627 38806 ft 488 kts 32°
2026-05-07 22:42 50.25894 -74.02850 38814 ft 488 kts 32°
2026-05-07 22:42 50.31565 -73.97023 38799 ft 488 kts 32°
2026-05-07 22:43 50.37229 -73.91186 38796 ft 487 kts 32°
2026-05-07 22:43 50.42878 -73.85347 38802 ft 486 kts 32°
2026-05-07 22:44 50.48515 -73.79504 38800 ft 485 kts 32°
2026-05-07 22:44 50.54141 -73.73656 38798 ft 485 kts 32°
2026-05-07 22:45 50.59758 -73.67800 38793 ft 484 kts 32°
2026-05-07 22:45 50.65359 -73.61943 38801 ft 483 kts 32°
2026-05-07 22:46 50.70953 -73.56077 38800 ft 483 kts 32°
2026-05-07 22:46 50.76545 -73.50196 38789 ft 483 kts 32°
2026-05-07 22:47 50.82128 -73.44307 38786 ft 482 kts 33°
2026-05-07 22:47 50.87703 -73.38409 38790 ft 482 kts 33°
2026-05-07 22:48 50.93276 -73.32497 38789 ft 482 kts 33°
2026-05-07 22:48 50.98841 -73.26574 38786 ft 482 kts 33°
2026-05-07 22:49 51.04369 -73.20676 38777 ft 482 kts 33°
2026-05-07 22:49 51.09933 -73.14720 38787 ft 482 kts 33°
2026-05-07 22:50 51.15500 -73.08743 38779 ft 483 kts 33°
2026-05-07 22:50 51.21107 -73.02706 38782 ft 483 kts 33°
2026-05-07 22:51 51.26638 -72.96733 38774 ft 484 kts 33°
2026-05-07 22:51 51.32207 -72.90701 38774 ft 484 kts 33°
2026-05-07 22:52 51.37780 -72.84648 38774 ft 484 kts 33°
2026-05-07 22:52 51.43344 -72.78585 38772 ft 484 kts 33°
2026-05-07 22:53 51.48905 -72.72508 38775 ft 484 kts 34°
2026-05-07 22:53 51.54467 -72.66411 38772 ft 484 kts 34°
2026-05-07 22:54 51.60018 -72.60307 38769 ft 483 kts 34°
2026-05-07 22:54 51.65560 -72.54195 38773 ft 483 kts 34°
2026-05-07 22:55 51.71097 -72.48070 38774 ft 483 kts 34°
2026-05-07 22:55 51.76629 -72.41933 38767 ft 482 kts 34°
2026-05-07 22:56 51.82148 -72.35790 38772 ft 482 kts 34°
2026-05-07 22:56 51.87657 -72.29641 38773 ft 481 kts 34°
2026-05-07 22:57 51.93165 -72.23474 38771 ft 481 kts 34°
2026-05-07 22:57 51.98663 -72.17300 38769 ft 481 kts 34°
2026-05-07 22:58 52.04154 -72.11115 38770 ft 480 kts 34°
2026-05-07 22:58 52.09639 -72.04917 38768 ft 480 kts 34°
2026-05-07 22:59 52.15124 -71.98701 38759 ft 480 kts 34°
2026-05-07 22:59 52.20568 -71.92512 38767 ft 481 kts 34°
2026-05-07 23:00 52.26051 -71.86259 38769 ft 481 kts 34°
2026-05-07 23:00 52.31539 -71.79983 38766 ft 482 kts 35°
2026-05-07 23:01 52.37034 -71.73678 38769 ft 483 kts 35°
2026-05-07 23:01 52.42527 -71.67355 38761 ft 483 kts 35°
2026-05-07 23:02 52.48029 -71.61003 38765 ft 484 kts 35°
2026-05-07 23:02 52.53525 -71.54639 38764 ft 484 kts 35°
2026-05-07 23:03 52.59023 -71.48251 38764 ft 484 kts 35°
2026-05-07 23:03 52.64513 -71.41854 38760 ft 483 kts 35°
2026-05-07 23:04 52.69995 -71.35445 38761 ft 483 kts 35°
2026-05-07 23:04 52.75467 -71.29027 38762 ft 482 kts 35°
2026-05-07 23:05 52.80929 -71.22601 38756 ft 482 kts 36°
2026-05-07 23:05 52.86382 -71.16165 38761 ft 481 kts 36°
2026-05-07 23:06 52.91826 -71.09719 38763 ft 481 kts 36°
2026-05-07 23:06 52.97262 -71.03264 38763 ft 481 kts 36°
2026-05-07 23:07 53.02821 -70.97110 38763 ft 480 kts 30°
2026-05-07 23:07 53.08630 -70.91787 38758 ft 480 kts 28°
2026-05-07 23:08 53.14521 -70.86526 38757 ft 480 kts 28°
2026-05-07 23:08 53.20385 -70.81180 38752 ft 480 kts 29°
2026-05-07 23:09 53.26229 -70.75761 38756 ft 480 kts 29°
2026-05-07 23:09 53.32065 -70.70311 38754 ft 481 kts 29°
2026-05-07 23:10 53.37901 -70.64842 38760 ft 481 kts 29°
2026-05-07 23:10 53.42790 -70.60252 38759 ft 481 kts 30°
2026-05-07 23:11 53.48625 -70.54759 38756 ft 481 kts 30°
2026-05-07 23:11 53.54460 -70.49249 38746 ft 481 kts 30°
2026-05-07 23:12 53.60292 -70.43724 38756 ft 481 kts 30°
2026-05-07 23:12 53.66126 -70.38179 38756 ft 482 kts 30°
2026-05-07 23:13 53.71962 -70.32615 38756 ft 482 kts 30°
2026-05-07 23:13 53.77763 -70.27066 38757 ft 482 kts 30°
2026-05-07 23:14 53.83602 -70.21463 38760 ft 483 kts 30°
2026-05-07 23:14 53.89445 -70.15837 38753 ft 483 kts 30°
2026-05-07 23:15 53.95288 -70.10194 38760 ft 483 kts 30°
2026-05-07 23:15 54.01132 -70.04531 38760 ft 483 kts 30°
2026-05-07 23:16 54.06973 -69.98853 38752 ft 484 kts 30°
2026-05-07 23:16 54.12811 -69.93158 38755 ft 483 kts 31°
2026-05-07 23:17 54.18640 -69.87454 38756 ft 483 kts 31°
2026-05-07 23:17 54.24467 -69.81733 38753 ft 483 kts 31°
2026-05-07 23:18 54.30291 -69.75996 38753 ft 483 kts 31°
2026-05-07 23:18 54.36111 -69.70244 38753 ft 483 kts 31°
2026-05-07 23:19 54.41930 -69.64474 38755 ft 483 kts 31°
2026-05-07 23:19 54.47703 -69.58732 38753 ft 483 kts 31°
2026-05-07 23:20 54.53516 -69.52929 38750 ft 483 kts 31°
2026-05-07 23:20 54.59323 -69.47114 38745 ft 483 kts 31°
2026-05-07 23:21 54.65125 -69.41284 38748 ft 483 kts 31°
2026-05-07 23:21 54.70926 -69.35435 38748 ft 483 kts 31°
2026-05-07 23:22 54.76726 -69.29568 38745 ft 483 kts 31°
2026-05-07 23:22 54.82522 -69.23686 38740 ft 483 kts 31°
2026-05-07 23:23 54.88320 -69.17781 38743 ft 483 kts 32°
2026-05-07 23:23 54.94120 -69.11855 38741 ft 484 kts 32°
2026-05-07 23:24 54.99880 -69.05950 38746 ft 484 kts 32°
2026-05-07 23:24 55.05681 -68.99982 38736 ft 484 kts 32°
2026-05-07 23:25 55.11483 -68.93993 38749 ft 485 kts 32°
2026-05-07 23:25 55.17284 -68.87984 38739 ft 485 kts 32°
2026-05-07 23:26 55.23087 -68.81953 38739 ft 485 kts 32°
2026-05-07 23:26 55.28890 -68.75901 38732 ft 485 kts 32°
2026-05-07 23:27 55.37586 -68.66794 38741 ft 485 kts 32°
2026-05-07 23:27 55.43381 -68.60698 38740 ft 485 kts 32°
2026-05-07 23:28 55.49175 -68.54581 38734 ft 486 kts 32°
2026-05-07 23:28 55.54969 -68.48444 38738 ft 486 kts 32°
2026-05-07 23:29 55.60755 -68.42294 38735 ft 485 kts 32°
2026-05-07 23:29 55.66542 -68.36122 38737 ft 485 kts 32°
2026-05-07 23:30 55.72318 -68.29939 38732 ft 485 kts 33°
2026-05-07 23:30 55.78055 -68.23776 38743 ft 485 kts 33°
2026-05-07 23:31 55.83826 -68.17556 38738 ft 485 kts 33°
2026-05-07 23:31 55.89591 -68.11319 38742 ft 485 kts 33°
2026-05-07 23:32 55.95358 -68.05059 38740 ft 485 kts 33°
2026-05-07 23:32 56.01120 -67.98797 38739 ft 485 kts 32°
2026-05-07 23:33 56.06958 -67.92702 38740 ft 486 kts 31°
2026-05-07 23:33 56.12820 -67.86675 38742 ft 486 kts 31°
2026-05-07 23:34 56.18681 -67.80608 38741 ft 487 kts 32°
2026-05-07 23:34 56.24534 -67.74496 38745 ft 487 kts 32°
2026-05-07 23:35 56.30380 -67.68357 38747 ft 487 kts 32°
2026-05-07 23:35 56.36186 -67.62238 38747 ft 487 kts 32°
2026-05-07 23:36 56.42034 -67.56054 38732 ft 487 kts 32°
2026-05-07 23:36 56.47879 -67.49852 38731 ft 487 kts 32°
2026-05-07 23:37 56.53727 -67.43625 38743 ft 488 kts 32°
2026-05-07 23:37 56.59581 -67.37367 38742 ft 489 kts 32°
2026-05-07 23:38 56.65439 -67.31083 38738 ft 489 kts 32°
2026-05-07 23:38 56.71302 -67.24772 38741 ft 490 kts 32°
2026-05-07 23:39 56.77164 -67.18437 38739 ft 490 kts 32°
2026-05-07 23:39 56.83029 -67.12077 38741 ft 490 kts 32°
2026-05-07 23:40 56.88891 -67.05695 38735 ft 490 kts 32°
2026-05-07 23:40 56.94708 -66.99340 38727 ft 490 kts 32°
2026-05-07 23:41 57.00557 -66.92926 38727 ft 490 kts 32°
2026-05-07 23:41 57.06404 -66.86491 38731 ft 490 kts 33°
2026-05-07 23:42 57.12243 -66.80039 38724 ft 490 kts 33°
2026-05-07 23:42 57.18076 -66.73572 38731 ft 489 kts 33°
2026-05-07 23:43 57.23905 -66.67083 38730 ft 489 kts 33°
2026-05-07 23:43 57.29728 -66.60578 38734 ft 489 kts 33°
2026-05-07 23:44 57.35548 -66.54051 38727 ft 489 kts 33°
2026-05-07 23:44 57.41363 -66.47506 38722 ft 489 kts 33°
2026-05-07 23:45 57.47175 -66.40939 38726 ft 489 kts 33°
2026-05-07 23:45 57.52989 -66.34345 38723 ft 489 kts 33°
2026-05-07 23:46 57.58800 -66.27730 38722 ft 490 kts 33°
2026-05-07 23:46 57.64611 -66.21089 38712 ft 490 kts 33°
2026-05-07 23:47 57.70424 -66.14422 38729 ft 490 kts 33°
2026-05-07 23:47 57.76230 -66.07736 38731 ft 490 kts 33°
2026-05-07 23:48 57.82037 -66.01023 38728 ft 490 kts 33°
2026-05-07 23:48 57.87804 -65.94333 38717 ft 491 kts 33°
2026-05-07 23:49 57.93605 -65.87576 38717 ft 490 kts 33°
2026-05-07 23:49 57.99398 -65.80803 38721 ft 490 kts 34°
2026-05-07 23:50 58.05186 -65.74008 38728 ft 490 kts 34°
2026-05-07 23:50 58.10972 -65.67191 38726 ft 490 kts 34°
2026-05-07 23:51 58.16749 -65.60357 38720 ft 489 kts 34°
2026-05-07 23:51 58.22518 -65.53507 38728 ft 489 kts 34°
2026-05-07 23:52 58.28282 -65.46635 38732 ft 489 kts 34°
2026-05-07 23:52 58.34042 -65.39741 38729 ft 489 kts 34°
2026-05-07 23:53 58.39798 -65.32826 38725 ft 489 kts 34°
2026-05-07 23:53 58.45547 -65.25892 38735 ft 489 kts 34°
2026-05-07 23:54 58.51255 -65.18979 38737 ft 489 kts 34°
2026-05-07 23:54 58.57003 -65.11992 38729 ft 489 kts 34°
2026-05-07 23:55 58.62750 -65.04978 38725 ft 489 kts 34°
2026-05-07 23:55 58.68492 -64.97943 38734 ft 489 kts 34°
2026-05-07 23:56 58.74225 -64.90889 38737 ft 489 kts 34°
2026-05-07 23:56 58.79961 -64.83806 38744 ft 489 kts 34°
2026-05-07 23:57 58.85692 -64.76698 38738 ft 490 kts 34°
2026-05-07 23:57 58.91418 -64.69570 38743 ft 490 kts 34°
2026-05-07 23:58 58.97143 -64.62414 38753 ft 490 kts 35°
2026-05-07 23:58 59.02864 -64.55233 38752 ft 490 kts 35°
2026-05-07 23:59 59.08581 -64.48030 38768 ft 490 kts 35°
2026-05-07 23:59 59.14293 -64.40803 38752 ft 490 kts 35°
2026-05-08 00:00 59.20005 -64.33546 38756 ft 490 kts 35°
2026-05-08 00:00 59.25700 -64.26244 38771 ft 489 kts 38°
2026-05-08 00:01 59.30696 -64.17368 38777 ft 484 kts 49°
2026-05-08 00:01 59.35320 -64.07768 38767 ft 484 kts 50°
2026-05-08 00:02 59.39936 -63.98136 38771 ft 485 kts 49°
2026-05-08 00:02 59.44552 -63.88598 38777 ft 485 kts 49°
2026-05-08 00:03 59.49211 -63.78997 38769 ft 485 kts 49°
2026-05-08 00:03 59.53869 -63.69371 38780 ft 486 kts 49°
2026-05-08 00:04 59.58522 -63.59711 38777 ft 486 kts 49°
2026-05-08 00:04 59.62424 -63.51575 38782 ft 487 kts 49°
2026-05-08 00:05 59.67075 -63.41834 38782 ft 488 kts 49°
2026-05-08 00:05 59.71731 -63.32043 38785 ft 489 kts 49°
2026-05-08 00:06 59.76353 -63.22280 38782 ft 489 kts 49°
2026-05-08 00:06 59.81004 -63.12414 38782 ft 489 kts 49°
2026-05-08 00:07 59.85647 -63.02521 38787 ft 489 kts 50°
2026-05-08 00:07 59.90278 -62.92610 38785 ft 489 kts 50°
2026-05-08 00:08 59.94904 -62.82667 38788 ft 489 kts 50°
2026-05-08 00:08 59.99517 -62.72707 38778 ft 488 kts 50°
2026-05-08 00:09 60.04120 -62.62725 38796 ft 488 kts 50°
2026-05-08 00:09 60.08707 -62.52733 38797 ft 487 kts 50°
2026-05-08 00:10 60.13285 -62.42716 38799 ft 487 kts 50°
2026-05-08 00:10 60.17853 -62.32678 38800 ft 487 kts 50°
2026-05-08 00:11 60.22413 -62.22612 38797 ft 487 kts 50°
2026-05-08 00:11 60.26964 -62.12522 38787 ft 486 kts 50°
2026-05-08 00:12 60.31503 -62.02412 38802 ft 486 kts 50°
2026-05-08 00:12 60.36037 -61.92268 38812 ft 487 kts 50°
2026-05-08 00:13 60.40571 -61.82080 38815 ft 488 kts 50°
2026-05-08 00:13 60.45103 -61.71849 38806 ft 488 kts 50°
2026-05-08 00:14 60.49630 -61.61582 38821 ft 489 kts 51°
2026-05-08 00:14 60.54156 -61.51274 38820 ft 489 kts 51°
2026-05-08 00:15 60.58677 -61.40928 38823 ft 489 kts 51°
2026-05-08 00:15 60.63191 -61.30550 38822 ft 490 kts 51°
2026-05-08 00:16 60.67698 -61.20141 38825 ft 489 kts 51°
2026-05-08 00:16 60.72193 -61.09714 38830 ft 489 kts 51°
2026-05-08 00:17 60.76649 -60.99329 38833 ft 489 kts 51°
2026-05-08 00:17 60.81122 -60.88856 38832 ft 488 kts 51°
2026-05-08 00:18 60.85582 -60.78363 38831 ft 488 kts 51°
2026-05-08 00:18 60.90033 -60.67844 38847 ft 488 kts 51°
2026-05-08 00:19 60.94469 -60.57314 38841 ft 487 kts 51°
2026-05-08 00:19 60.98898 -60.46749 38852 ft 487 kts 51°
2026-05-08 00:20 61.03313 -60.36168 38855 ft 487 kts 51°
2026-05-08 00:20 61.07721 -60.25556 38840 ft 487 kts 52°
2026-05-08 00:21 61.12115 -60.14927 38856 ft 486 kts 52°
2026-05-08 00:21 61.16502 -60.04265 38865 ft 486 kts 52°
2026-05-08 00:22 61.20880 -59.93576 38865 ft 486 kts 52°
2026-05-08 00:22 61.25251 -59.82853 38874 ft 487 kts 52°
2026-05-08 00:23 61.29616 -59.72094 38874 ft 487 kts 52°
2026-05-08 00:23 61.33971 -59.61308 38879 ft 487 kts 52°
2026-05-08 00:24 61.38319 -59.50490 38885 ft 487 kts 52°
2026-05-08 00:24 61.42663 -59.39628 38881 ft 487 kts 52°
2026-05-08 00:25 61.46997 -59.28742 38879 ft 487 kts 52°
2026-05-08 00:25 61.51321 -59.17826 38881 ft 487 kts 52°
2026-05-08 00:26 61.55636 -59.06884 38888 ft 487 kts 52°
2026-05-08 00:26 61.59942 -58.95907 38893 ft 487 kts 53°
2026-05-08 00:27 61.64240 -58.84901 38893 ft 487 kts 53°
2026-05-08 00:27 61.68527 -58.73869 38902 ft 487 kts 53°
2026-05-08 00:28 61.72807 -58.62802 38899 ft 487 kts 53°
2026-05-08 00:28 61.77074 -58.51714 38906 ft 486 kts 53°
2026-05-08 00:29 61.81333 -58.40592 38910 ft 487 kts 53°
2026-05-08 00:29 61.85584 -58.29435 38922 ft 487 kts 53°
2026-05-08 00:30 61.89830 -58.18239 38924 ft 488 kts 53°
2026-05-08 00:30 61.94074 -58.06993 38923 ft 488 kts 53°
2026-05-08 00:31 61.98329 -57.95742 38927 ft 489 kts 52°
2026-05-08 00:31 62.02721 -57.84684 38935 ft 489 kts 51°
2026-05-08 00:32 62.07144 -57.73658 38938 ft 490 kts 51°
2026-05-08 00:32 62.11548 -57.62563 38945 ft 490 kts 52°
2026-05-08 00:33 62.15897 -57.51492 38945 ft 489 kts 52°
2026-05-08 00:33 62.20261 -57.40308 38956 ft 489 kts 52°
2026-05-08 00:34 62.24615 -57.29093 38953 ft 489 kts 52°
2026-05-08 00:34 62.28959 -57.17853 38964 ft 489 kts 52°
2026-05-08 00:35 62.33292 -57.06586 38964 ft 489 kts 52°
2026-05-08 00:35 62.37612 -56.95297 38974 ft 488 kts 52°
2026-05-08 00:36 62.41918 -56.83988 38987 ft 488 kts 52°
2026-05-08 00:36 62.46214 -56.72650 38986 ft 488 kts 52°
2026-05-08 00:37 62.50498 -56.61283 38998 ft 487 kts 52°
2026-05-08 00:38 62.56903 -56.44185 38998 ft 487 kts 52°
2026-05-08 00:38 62.61160 -56.32751 38999 ft 487 kts 52°
2026-05-08 00:39 62.65404 -56.21291 39004 ft 487 kts 52°
2026-05-08 00:39 62.69639 -56.09798 39008 ft 487 kts 53°
2026-05-08 00:40 62.73867 -55.98264 39012 ft 487 kts 53°
2026-05-08 00:40 62.78087 -55.86694 39017 ft 487 kts 53°
2026-05-08 00:41 62.82294 -55.75103 39017 ft 487 kts 53°
2026-05-08 00:41 62.86492 -55.63475 39033 ft 487 kts 53°
2026-05-08 00:42 62.90681 -55.51812 39033 ft 487 kts 53°
2026-05-08 00:42 62.94858 -55.40122 39041 ft 487 kts 53°
2026-05-08 00:43 62.98995 -55.28484 39041 ft 486 kts 53°
2026-05-08 00:43 63.03149 -55.16739 39044 ft 486 kts 53°
2026-05-08 00:44 63.07289 -55.04971 39052 ft 485 kts 53°
2026-05-08 00:44 63.11416 -54.93181 39059 ft 485 kts 53°
2026-05-08 00:45 63.15533 -54.81355 39057 ft 485 kts 53°
2026-05-08 00:45 63.19632 -54.69521 39064 ft 484 kts 54°
2026-05-08 00:46 63.23723 -54.57646 39066 ft 484 kts 54°
2026-05-08 00:46 63.27800 -54.45753 39000 ft 485 kts 54°
2026-05-08 00:46 63.29856 -54.39728 38388 ft 491 kts 54°
2026-05-08 00:47 63.31912 -54.33690 37751 ft 488 kts 54°
2026-05-08 00:47 63.33957 -54.27667 37086 ft 487 kts 54°
2026-05-08 00:47 63.35996 -54.21648 36432 ft 486 kts 54°
2026-05-08 00:47 63.38030 -54.15628 35714 ft 487 kts 54°
2026-05-08 00:48 63.40043 -54.09651 34971 ft 490 kts 54°
2026-05-08 00:48 63.42095 -54.03542 34187 ft 494 kts 54°
2026-05-08 00:48 63.44167 -53.97356 33233 ft 499 kts 54°
2026-05-08 00:48 63.46252 -53.91118 32350 ft 502 kts 54°
2026-05-08 00:49 63.48344 -53.84840 31428 ft 505 kts 54°
2026-05-08 00:49 63.50449 -53.78505 30477 ft 509 kts 55°
2026-05-08 00:49 63.52567 -53.72111 29353 ft 513 kts 55°
2026-05-08 00:49 63.54693 -53.65678 28203 ft 514 kts 55°
2026-05-08 00:50 63.56822 -53.59216 27041 ft 516 kts 55°
2026-05-08 00:50 63.58956 -53.52722 25784 ft 518 kts 55°
2026-05-08 00:50 63.61090 -53.46209 24814 ft 515 kts 55°
2026-05-08 00:50 63.63201 -53.39748 23854 ft 511 kts 55°
2026-05-08 00:51 63.65292 -53.33332 22804 ft 505 kts 55°
2026-05-08 00:51 63.67351 -53.26996 21837 ft 498 kts 56°
2026-05-08 00:51 63.69379 -53.20737 20912 ft 490 kts 56°
2026-05-08 00:51 63.71373 -53.14565 20007 ft 483 kts 56°
2026-05-08 00:52 63.73337 -53.08470 19091 ft 478 kts 56°
2026-05-08 00:52 63.74624 -53.04462 18496 ft 474 kts 56°
2026-05-08 00:52 63.76550 -52.98458 17501 ft 468 kts 56°
2026-05-08 00:52 63.78435 -52.92565 16610 ft 459 kts 56°
2026-05-08 00:53 63.80289 -52.86753 15858 ft 449 kts 56°
2026-05-08 00:53 63.82100 -52.81061 14955 ft 443 kts 56°
2026-05-08 00:53 63.83871 -52.75483 14188 ft 432 kts 56°
2026-05-08 00:53 63.85610 -52.69989 13460 ft 422 kts 56°
2026-05-08 00:54 63.87311 -52.64606 12482 ft 417 kts 56°
2026-05-08 00:54 63.88974 -52.59328 11648 ft 409 kts 56°
2026-05-08 00:54 63.90612 -52.54118 10987 ft 399 kts 57°
2026-05-08 00:54 63.92185 -52.49110 10744 ft 379 kts 57°
2026-05-08 00:55 63.93671 -52.44370 10607 ft 358 kts 57°
2026-05-08 00:55 63.95079 -52.39869 10482 ft 340 kts 57°
2026-05-08 00:55 63.96416 -52.35581 10369 ft 324 kts 58°
2026-05-08 00:55 63.97687 -52.31495 10262 ft 309 kts 58°
2026-05-08 00:56 63.98898 -52.27591 10162 ft 295 kts 58°
2026-05-08 00:56 64.00077 -52.23780 9598 ft 299 kts 58°
2026-05-08 00:56 64.01265 -52.19932 9182 ft 296 kts 58°
2026-05-08 00:56 64.02445 -52.16112 8794 ft 293 kts 58°
2026-05-08 00:57 64.03610 -52.12339 8420 ft 289 kts 59°
2026-05-08 00:57 64.04760 -52.08608 8054 ft 286 kts 59°
2026-05-08 00:57 64.05897 -52.04910 7693 ft 283 kts 59°
2026-05-08 00:57 64.07037 -52.01347 7331 ft 282 kts 52°
2026-05-08 00:58 64.08539 -51.98547 7212 ft 275 kts 39°
2026-05-08 00:58 64.10103 -51.96077 6902 ft 272 kts 39°
2026-05-08 00:58 64.11650 -51.93603 6547 ft 271 kts 40°
2026-05-08 00:58 64.13141 -51.91019 6215 ft 266 kts 43°
2026-05-08 00:59 64.14656 -51.88538 5805 ft 267 kts 44°
2026-05-08 00:59 64.15751 -51.85320 5430 ft 251 kts 75°
2026-05-08 00:59 64.15950 -51.81501 5065 ft 237 kts 103°
2026-05-08 00:59 64.15427 -51.78014 4687 ft 229 kts 125°
2026-05-08 01:00 64.14388 -51.75357 4296 ft 224 kts 147°
2026-05-08 01:00 64.12975 -51.74012 4167 ft 221 kts 170°
2026-05-08 01:00 64.11431 -51.74188 4139 ft 227 kts 192°
2026-05-08 01:00 64.10016 -51.75866 4136 ft 235 kts 214°
2026-05-08 01:01 64.08976 -51.78802 4129 ft 244 kts 237°
2026-05-08 01:01 64.08494 -51.82579 4134 ft 255 kts 259°
2026-05-08 01:01 64.08666 -51.86668 4148 ft 265 kts 281°
2026-05-08 01:01 64.09492 -51.90495 4134 ft 274 kts 303°
2026-05-08 01:02 64.10886 -51.93511 4138 ft 279 kts 326°
2026-05-08 01:02 64.12661 -51.95277 4130 ft 280 kts 348°
2026-05-08 01:02 64.14585 -51.95554 4131 ft 276 kts 10°
2026-05-08 01:02 64.16408 -51.94390 4124 ft 270 kts 31°
2026-05-08 01:03 64.17893 -51.91928 4128 ft 260 kts 53°
2026-05-08 01:03 64.18851 -51.88528 4137 ft 250 kts 75°
2026-05-08 01:03 64.19164 -51.84725 4140 ft 239 kts 97°
2026-05-08 01:03 64.18817 -51.81084 4128 ft 231 kts 120°
2026-05-08 01:04 64.17884 -51.78183 4131 ft 225 kts 142°
2026-05-08 01:04 64.16535 -51.76477 4129 ft 223 kts 164°
2026-05-08 01:04 64.14994 -51.76233 4122 ft 225 kts 186°
2026-05-08 01:04 64.13523 -51.77509 4127 ft 231 kts 208°
2026-05-08 01:05 64.12379 -51.80086 4117 ft 240 kts 230°
2026-05-08 01:05 64.11733 -51.83663 4132 ft 250 kts 253°
2026-05-08 01:05 64.11720 -51.87715 4123 ft 261 kts 275°
2026-05-08 01:05 64.12373 -51.91630 4132 ft 269 kts 297°
2026-05-08 01:06 64.13606 -51.94866 4127 ft 274 kts 320°
2026-05-08 01:06 64.15276 -51.96981 4130 ft 276 kts 342°
2026-05-08 01:06 64.17159 -51.97658 4141 ft 274 kts
2026-05-08 01:06 64.19005 -51.96810 4137 ft 269 kts 27°
2026-05-08 01:07 64.20565 -51.94578 4135 ft 262 kts 49°
2026-05-08 01:07 64.21629 -51.91322 4145 ft 251 kts 71°
2026-05-08 01:07 64.22069 -51.87533 4107 ft 242 kts 93°
2026-05-08 01:07 64.21839 -51.83807 4126 ft 233 kts 115°
2026-05-08 01:08 64.21001 -51.80705 4131 ft 228 kts 137°
2026-05-08 01:08 64.19704 -51.78713 4132 ft 226 kts 160°
2026-05-08 01:08 64.18163 -51.78143 4153 ft 228 kts 181°
2026-05-08 01:08 64.16629 -51.79098 4128 ft 232 kts 203°
2026-05-08 01:09 64.15370 -51.81451 4128 ft 238 kts 225°
2026-05-08 01:09 64.14601 -51.84842 4123 ft 247 kts 248°
2026-05-08 01:09 64.14449 -51.88826 4128 ft 258 kts 271°
2026-05-08 01:09 64.14964 -51.92831 4138 ft 268 kts 293°
2026-05-08 01:10 64.16096 -51.96261 4129 ft 275 kts 315°
2026-05-08 01:10 64.17692 -51.98615 4085 ft 269 kts 337°
2026-05-08 01:10 64.19519 -51.98880 3080 ft 271 kts 38°
2026-05-08 01:10 64.20122 -51.95709 2935 ft 203 kts 119°
2026-05-08 01:11 64.19385 -51.93007 2282 ft 200 kts 133°
2026-05-08 01:11 64.18591 -51.90593 1921 ft 178 kts 130°
2026-05-08 01:11 64.18047 -51.88285 1864 ft 150 kts 123°
2026-05-08 01:11 64.17647 -51.86208 1586 ft 136 kts 123°
2026-05-08 01:12 64.17357 -51.84367 1524 ft 104 kts 121°
2026-05-08 01:12 64.17102 -51.82855 1194 ft 126 kts 120°
2026-05-08 01:12 64.16794 -51.80985 1087 ft 120 kts 118°
2026-05-08 01:12 64.16474 -51.79248 887 ft 120 kts 118°
2026-05-08 01:13 64.16133 -51.77478 781 ft 131 kts 114°
2026-05-08 01:13 64.15863 -51.75404 1099 ft 138 kts 102°
2026-05-08 01:13 64.16016 -51.73370 739 ft 133 kts 71°
2026-05-08 01:13 64.16421 -51.71548 621 ft 130 kts 62°
2026-05-08 01:14 64.17030 -51.69760 661 ft 141 kts 40°
2026-05-08 01:14 64.17871 -51.68833 385 ft 128 kts 19°
2026-05-08 01:14 64.18614 -51.68275 269 ft 77 kts 18°
2026-05-08 01:14 64.18856 -51.68099 277 ft 26 kts 18°
2026-05-08 01:15 64.18937 -51.67996 279 ft 9 kts 48°